Location: Newark
(25.6108°S, 54.5803°W)
Time: 09:30:56
(UTC+00:00)

deb Explorer IX - Pass Details

Date: 31 October 2020
Orbit: 538 x 1104 km, 38.8° (Epoch: 23 November)

Event Time Altitude Azimuth Distance (km) Brightness Sun altitude
Rises 00:05:12 0° 232° (SW) 2,957 ? -27.7°
Reaches altitude 10° 00:08:02 10° 217° (SW) 1,964 ? -28.3°
Enters shadow 00:11:00 23° 177° (S) 1,253 ? -28.8°
Maximum altitude 00:11:39 24° 163° (SSE) 1,212 - -28.9°
Drops below altitude 10° 00:15:03 10° 108° (ESE) 1,822 - -29.6°
Sets 00:17:34 0° 93° (E) 2,692 - -30.0°
